SP5XSL-4 Weather Reports


time (UTC)temp
F
wind
direction
speed
knots
gust
knots
rain 1hr
in
rain 24hr
in
rain mn
in
humidity
%
barometer
mb
20260506145237 69 173 17.4 21.7 0.00 0.00 0.00 1011.7
20260506144226 70 164 17.4 21.7 0.00 0.00 0.00 1011.7
20260506143307 70 164 11.3 25.2 0.00 0.00 0.00 1012.0
20260506142340 70 187 17.4 29.5 0.00 0.00 0.00 1011.8
20260506141500 70 172 19.1 25.2 0.00 0.00 0.00 1011.8
20260506140635 70 160 19.1 25.2 0.00 0.00 0.00 1011.7
20260506135805 70 143 17.4 17.4 0.00 0.00 0.00 1011.6
20260506134927 70 170 11.3 13.9 0.00 0.00 0.00 1011.5
20260506133951 71 187 19.1 29.5 0.00 0.00 0.00 1011.6
20260506132947 71 193 11.3 13.9 0.00 0.00 0.00 1011.2
20260506132105 71 174 19.1 39.1 0.00 0.00 0.00 1011.3
20260506131127 71 155 9.6 9.6 0.00 0.00 0.00 1011.1
20260506130247 70 169 6.1 7.8 0.00 0.00 0.00 1011.3
20260506125440 70 161 15.6 21.7 0.00 0.00 0.00 1011.3
20260506124615 70 148 7.8 9.6 0.00 0.00 0.00 1011.4
20260506123630 70 176 23.5 29.5 0.00 0.00 0.00 1011.2
20260506122646 70 196 19.1 29.5 0.00 0.00 0.00 1011.2
20260506121840 70 184 19.1 25.2 0.00 0.00 0.00 1011.2
20260506120857 70 117 11.3 13.9 0.00 0.00 0.00 1011.1
20260506115857 70 178 17.4 25.2 0.00 0.00 0.00 1010.9
20260506114916 70 166 21.7 33.0 0.00 0.00 0.00 1011.0
20260506114048 71 167 23.5 29.5 0.00 0.00 0.00 1010.9
20260506113027 72 143 13.9 17.4 0.00 0.00 0.00 1010.9
20260506112017 71 135 11.3 17.4 0.00 0.00 0.00 1011.0
20260506105645 71 193 19.1 25.2 0.00 0.00 0.00 1010.9
20260506104730 69 145 9.6 9.6 0.00 0.00 0.00 1010.9
20260506103835 69 98 9.6 13.9 0.00 0.00 0.00 1010.8
20260506103022 69 85 13.9 17.4 0.00 0.00 0.00 1011.4
20260506102120 69 100 11.3 17.4 0.00 0.00 0.00 1011.3
20260506101315 69 133 6.1 7.8 0.00 0.00 0.00 1011.4
20260506100242 68 79 7.8 9.6 0.00 0.00 0.00 1011.6
20260506095310 67 89 7.8 7.8 0.00 0.00 0.00 1011.4
20260506094312 66 68 6.1 7.8 0.00 0.00 0.00 1011.3
20260506093335 66 171 6.1 9.6 0.00 0.00 0.00 1011.5
20260506092532 66 75 11.3 17.4 0.00 0.00 0.00 1011.7
20260506091545 65 105 0.0 3.5 0.00 0.00 0.00 1011.6
20260506090545 64 69 9.6 17.4 0.00 0.00 0.00 1011.5
20260506085545 63 118 1.7 7.8 0.00 0.00 0.00 1011.7
20260506084712 62 82 7.8 13.9 0.00 0.00 0.00 1011.6
20260506083725 62 86 3.5 7.8 0.00 0.00 0.00 1011.7
20260506082826 63 94 17.4 25.2 0.00 0.00 0.00 1011.9
20260506082021 62 42 9.6 9.6 0.00 0.00 0.00 1011.7
20260506081205 62 69 9.6 13.9 0.00 0.00 0.00 1011.5
20260506080217 60 52 11.3 17.4 0.00 0.00 0.00 1011.8
20260506073519 59 68 9.6 9.6 0.00 0.00 0.00 1012.1
20260506072610 58 77 7.8 9.6 0.00 0.00 0.00 1012.2
20260506071639 58 98 15.6 17.4 0.00 0.00 0.00 1012.2
20260506070659 58 35 11.3 13.9 0.00 0.00 0.00 1012.3
20260506061827 54 35 6.1 7.8 0.00 0.00 0.00 1012.2
20260506061005 53 65 1.7 7.8 0.00 0.00 0.00 1012.4
20260506051210 50 269 13.9 17.4 0.00 0.00 0.00 1013.0
20260506050350 50 22 17.4 21.7 0.00 0.00 0.00 1013.0
20260506044637 50 334 23.5 29.5 0.00 0.00 0.00 1013.2
20260506043808 50 65 7.8 9.6 0.00 0.00 0.00 1012.9
20260506042859 49 44 11.3 13.9 0.00 0.00 0.00 1013.1
20260506042010 49 83 9.6 13.9 0.00 0.00 0.00 1013.0
20260506041027 48 30 13.9 17.4 0.00 0.00 0.00 1013.3
20260506040139 48 83 6.1 7.8 0.00 0.00 0.00 1013.5
20260506035252 48 135 3.5 3.5 0.00 0.00 0.00 1013.6
20260506034419 48 81 7.8 9.6 0.00 0.00 0.00 1013.5
20260506033600 47 85 1.7 3.5 0.00 0.00 0.00 1013.4
20260506032757 47 121 1.7 3.5 0.00 0.00 0.00 1013.5
20260506031835 47 131 3.5 3.5 0.00 0.00 0.00 1013.4
20260506031017 47 40 6.1 7.8 0.00 0.00 0.00 1013.6
20260506030047 47 276 7.8 9.6 0.00 0.00 0.00 1013.5
20260506025110 47 131 3.5 7.8 0.00 0.00 0.00 1013.5
20260506024139 47 100 3.5 3.5 0.00 0.00 0.00 1013.8
20260506023247 47 117 1.7 3.5 0.00 0.00 0.00 1013.7
20260506022246 47 38 3.5 7.8 0.00 0.00 0.00 1013.6
20260506021255 47 102 3.5 3.5 0.00 0.00 0.00 1013.8
20260506020419 47 132 1.7 3.5 0.00 0.00 0.00 1013.7
20260506015510 47 328 9.6 9.6 0.00 0.00 0.00 1013.7
20260506014450 47 78 3.5 7.8 0.00 0.00 0.00 1013.9
20260506013602 48 295 9.6 13.9 0.00 0.00 0.00 1013.9
20260506012750 48 354 9.6 9.6 0.00 0.00 0.00 1014.0
20260506011948 48 359 7.8 9.6 0.00 0.00 0.00 1013.9
20260506011005 48 269 11.3 13.9 0.00 0.00 0.00 1014.1
20260506010110 48 139 1.7 7.8 0.00 0.00 0.00 1014.0
20260506005157 49 104 6.1 7.8 0.00 0.00 0.00 1013.9
20260506004209 49 123 1.7 3.5 0.00 0.00 0.00 1013.9
20260506003319 49 353 7.8 9.6 0.00 0.00 0.00 1013.6
20260506002439 49 160 1.7 3.5 0.00 0.00 0.00 1013.9
20260506001617 49 45 7.8 13.9 0.00 0.00 0.00 1013.7
20260506000623 50 101 6.1 7.8 0.00 0.00 0.00 1013.7
20260505235815 50 41 15.6 17.4 0.00 0.00 0.00 1013.8
20260505234939 50 126 1.7 3.5 0.00 0.00 0.00 1013.9
20260505234025 50 38 9.6 9.6 0.00 0.00 0.00 1013.9
20260505233130 50 61 13.9 13.9 0.00 0.00 0.00 1013.7
20260505232137 50 44 9.6 13.9 0.00 0.00 0.00 1014.2
20260505231230 50 341 15.6 21.7 0.00 0.00 0.00 1014.2
20260505230237 50 312 11.3 13.9 0.00 0.00 0.00 1014.0
20260505225412 50 39 7.8 13.9 0.00 0.00 0.00 1014.2
20260505224420 50 222 7.8 9.6 0.00 0.00 0.00 1014.0
20260505223546 51 352 7.8 9.6 0.00 0.00 0.00 1014.1
20260505222547 51 322 6.1 9.6 0.00 0.00 0.00 1014.1
20260505221546 51 18 13.9 17.4 0.00 0.00 0.00 1014.0
20260505220745 51 29 11.3 17.4 0.00 0.00 0.00 1014.1
20260505215936 51 336 7.8 9.6 0.00 0.00 0.00 1014.0
20260505215035 51 139 11.3 17.4 0.00 0.00 0.00 1014.3
20260505214116 51 306 11.3 13.9 0.00 0.00 0.00 1014.1
20260505213227 52 127 1.7 3.5 0.00 0.00 0.00 1014.2
20260505212316 52 297 7.8 9.6 0.00 0.00 0.00 1014.3
20260505211430 52 336 11.3 13.9 0.00 0.00 0.00 1014.2
20260505210507 52 277 11.3 13.9 0.00 0.00 0.00 1014.1
20260505205425 52 311 13.9 17.4 0.00 0.00 0.00 1014.4
20260505204502 52 292 9.6 9.6 0.00 0.00 0.00 1014.4
20260505203552 53 352 17.4 21.7 0.00 0.00 0.00 1014.4
20260505202542 53 57 11.3 17.4 0.00 0.00 0.00 1014.1
20260505201602 53 1 13.9 17.4 0.00 0.00 0.00 1014.4
20260505200642 53 289 9.6 17.4 0.00 0.00 0.00 1014.2
20260505195625 54 61 13.9 21.7 0.00 0.00 0.00 1013.9
20260505194715 54 2 9.6 13.9 0.00 0.00 0.00 1014.2
20260505193730 55 332 11.3 25.2 0.00 0.00 0.00 1014.2
20260505192802 55 305 9.6 13.9 0.00 0.00 0.00 1014.3
20260505191835 56 259 7.8 9.6 0.00 0.00 0.00 1014.3
20260505190841 56 1 13.9 17.4 0.00 0.00 0.00 1014.2
20260505185902 57 3 13.9 21.7 0.00 0.00 0.00 1014.4
20260505184915 58 321 9.6 13.9 0.00 0.00 0.00 1014.2
20260505184015 60 336 17.4 25.2 0.00 0.00 0.00 1014.1
20260505183031 60 270 13.9 21.7 0.00 0.00 0.00 1014.0
20260505182155 61 288 11.3 17.4 0.00 0.00 0.00 1013.8
20260505181226 61 7 15.6 17.4 0.00 0.00 0.00 1013.6
20260505180422 62 117 7.8 9.6 0.00 0.00 0.00 1013.4
20260505175454 62 307 15.6 21.7 0.00 0.00 0.00 1013.5
20260505174622 62 303 6.1 7.8 0.00 0.00 0.00 1013.4
20260505173812 63 317 9.6 9.6 0.00 0.00 0.00 1013.3
20260505172941 63 56 19.1 25.2 0.00 0.00 0.00 1013.2
20260505172025 64 66 9.6 13.9 0.00 0.00 0.00 1013.1
20260505171030 64 12 13.9 13.9 0.00 0.00 0.00 1013.0
20260505170031 65 295 11.3 17.4 0.00 0.00 0.00 1012.9
20260505165205 66 281 21.7 25.2 0.00 0.00 0.00 1012.8
20260505164247 67 89 9.6 9.6 0.00 0.00 0.00 1012.9
20260505163335 67 299 6.1 7.8 0.00 0.00 0.00 1012.9
20260505162322 68 319 11.3 17.4 0.00 0.00 0.00 1012.8
20260505161454 68 338 15.6 17.4 0.00 0.00 0.00 1012.8
20260505160612 68 339 11.3 17.4 0.00 0.00 0.00 1012.9
20260505152854 70 140 1.7 3.5 0.00 0.00 0.00 1013.2
20260505151942 70 0 11.3 17.4 0.00 0.00 0.00 1013.3
20260505151010 70 117 3.5 3.5 0.00 0.00 0.00 1013.3
20260505150105 70 84 9.6 9.6 0.00 0.00 0.00 1013.4